GW0967 Weather Reports


Display with metric or nautical units.
time (UTC)temp
F
wind
direction
speed
MPH
gust
MPH
rain 1hr
in
rain 24hr
in
rain mn
in
humidity
%
barometer
mb
20260504120231 48 346 3.0 9.0 0.00 0.00 0.00 58 1008.6
20260504110659 55 339 4.0 14.0 0.00 0.00 0.00 45 1006.6
20260504110155 54 346 7.0 20.0 0.00 0.00 0.00 45 1006.4
20260504100119 55 348 2.0 7.0 0.00 0.00 0.00 44 1005.5
20260504081512 57 320 3.0 5.0 0.00 0.00 0.00 43 1005.4
20260504081008 57 286 0.0 6.0 0.00 0.00 0.00 44 1005.2
20260504080504 57 111 3.0 6.0 0.00 0.00 0.00 44 1005.4
20260504050317 57 323 3.0 3.0 0.00 0.01 0.01 49 1007.0
20260504045814 57 35 3.0 4.0 0.00 0.01 0.01 49 1007.2
20260504045309 57 353 4.0 5.0 0.00 0.01 0.01 48 1006.7
20260504044806 58 37 0.0 3.0 0.00 0.01 0.01 48 1006.8
20260504044303 58 344 2.0 5.0 0.00 0.01 0.01 47 1006.8
20260504043800 58 321 3.0 5.0 0.00 0.01 0.01 48 1006.5
20260504043258 57 216 3.0 6.0 0.00 0.01 0.01 49 1006.7
20260504042755 57 311 0.0 5.0 0.00 0.01 0.01 50 1006.6
20260504042251 57 14 0.0 7.0 0.00 0.01 0.01 51 1006.7
20260504041748 57 323 0.0 9.0 0.00 0.01 0.01 52 1006.7
20260504041244 57 245 0.0 5.0 0.00 0.01 0.01 53 1007.0
20260504040740 57 261 2.0 6.0 0.00 0.01 0.01 54 1006.8
20260504040238 57 324 3.0 6.0 0.00 0.01 0.01 54 1006.7
20260504035733 57 306 5.0 6.0 0.00 0.01 0.01 55 1007.2
20260504035231 57 242 2.0 6.0 0.00 0.01 0.01 56 1006.8
20260504034728 57 250 3.0 4.0 0.00 0.01 0.01 57 1007.2
20260504034225 58 142 0.0 6.0 0.00 0.01 0.01 57 1007.1
20260504033723 58 193 2.0 7.0 0.00 0.01 0.01 57 1007.1
20260504033220 57 245 2.0 7.0 0.00 0.01 0.01 58 1007.0
20260504032717 57 244 8.0 9.0 0.00 0.01 0.01 60 1007.2
20260504032214 55 329 3.0 6.0 0.00 0.01 0.01 64 1007.1
20260504031711 54 125 0.0 3.0 0.00 0.01 0.01 66 1007.0
20260504031208 53 33 0.0 4.0 0.00 0.01 0.01 68 1006.8
20260504030704 53 210 0.0 3.0 0.00 0.01 0.01 68 1007.1
20260504030202 54 129 0.0 3.0 0.00 0.01 0.01 67 1007.1
20260504025658 55 54 0.0 3.0 0.00 0.01 0.01 65 1006.8
20260504025155 55 83 0.0 3.0 0.00 0.01 0.01 63 1007.2
20260504024652 56 79 4.0 4.0 0.00 0.01 0.01 62 1006.7
20260504024148 57 67 4.0 4.0 0.00 0.01 0.01 61 1007.2
20260504023645 57 150 3.0 6.0 0.00 0.01 0.01 61 1007.1
20260504023141 57 135 3.0 7.0 0.00 0.01 0.01 61 1006.8
20260504022637 57 167 0.0 5.0 0.00 0.01 0.01 60 1007.0
20260504022133 57 147 3.0 4.0 0.00 0.01 0.01 60 1007.4
20260504021632 57 138 3.0 3.0 0.00 0.01 0.01 60 1007.2
20260504021128 57 142 3.0 4.0 0.00 0.01 0.01 59 1007.1
20260504020625 57 189 6.0 6.0 0.00 0.01 0.01 59 1007.2
20260504020121 58 203 3.0 4.0 0.00 0.01 0.01 58 1007.3
20260504015618 58 200 2.0 5.0 0.00 0.01 0.01 58 1007.2
20260504015114 58 153 3.0 6.0 0.00 0.01 0.01 58 1007.5
20260504014610 59 158 2.0 4.0 0.00 0.01 0.01 57 1007.4
20260504014107 59 165 3.0 5.0 0.00 0.01 0.01 56 1007.6
20260504013605 60 163 3.0 5.0 0.00 0.01 0.01 55 1007.6
20260504013102 60 152 4.0 5.0 0.00 0.01 0.01 54 1007.6
20260504012559 60 146 3.0 7.0 0.00 0.01 0.01 53 1007.8
20260504012057 61 153 5.0 8.0 0.00 0.01 0.01 53 1007.8
20260504011553 61 168 4.0 5.0 0.00 0.01 0.01 52 1008.1
20260504011049 62 155 4.0 6.0 0.00 0.01 0.01 51 1007.8
20260504010545 62 151 4.0 6.0 0.00 0.01 0.01 50 1008.1
20260504010042 63 193 2.0 8.0 0.00 0.01 0.01 50 1008.5
20260504005538 63 154 5.0 8.0 0.00 0.01 0.01 49 1008.3
20260504005036 63 165 3.0 7.0 0.00 0.01 0.01 48 1008.4
20260504004533 63 176 3.0 8.0 0.00 0.01 0.01 48 1008.3
20260504004030 64 164 4.0 6.0 0.00 0.01 0.01 46 1008.5
20260504003526 64 227 5.0 11.0 0.00 0.01 0.01 46 1008.7
20260504003023 64 180 2.0 15.0 0.00 0.01 0.01 45 1008.6
20260504002520 65 187 3.0 12.0 0.00 0.01 0.01 45 1008.9
20260504002018 65 170 3.0 7.0 0.00 0.01 0.01 44 1008.8
20260504001515 65 150 6.0 13.0 0.00 0.01 0.01 42 1009.0
20260504001011 66 196 4.0 13.0 0.00 0.01 0.01 43 1009.0
20260504000509 66 187 3.0 9.0 0.00 0.01 0.01 41 1009.3
20260504000006 67 59 3.0 9.0 0.00 0.01 0.01 39 1009.3
20260503235504 67 165 3.0 11.0 0.00 0.01 0.01 39 1009.2
20260503235001 67 212 3.0 9.0 0.00 0.01 0.01 39 1009.4
20260503234458 68 247 9.0 11.0 0.00 0.01 0.01 38 1009.2
20260503233956 68 222 3.0 5.0 0.00 0.01 0.01 38 1009.4
20260503233452 68 169 3.0 11.0 0.00 0.01 0.01 40 1009.6
20260503232948 68 168 4.0 9.0 0.00 0.01 0.01 39 1009.6
20260503232445 68 276 2.0 4.0 0.00 0.01 0.01 40 1009.7
20260503231943 67 192 0.0 6.0 0.00 0.01 0.01 41 1009.6
20260503231440 68 198 5.0 10.0 0.00 0.01 0.01 39 1009.9
20260503230937 68 326 2.0 10.0 0.00 0.01 0.01 40 1009.9
20260503230433 66 235 4.0 11.0 0.00 0.01 0.01 43 1009.8
20260503225931 66 189 4.0 6.0 0.00 0.01 0.01 44 1009.9
20260503225428 65 201 5.0 5.0 0.00 0.01 0.01 48 1010.0
20260503224923 64 245 4.0 4.0 0.00 0.01 0.01 50 1010.1
20260503224421 63 250 2.0 6.0 0.00 0.01 0.01 48 1010.6
20260503223918 63 141 0.0 7.0 0.00 0.01 0.01 46 1010.7
20260503223416 64 317 0.0 9.0 0.00 0.01 0.01 47 1010.8
20260503222916 66 237 4.0 10.0 0.00 0.01 0.01 48 1011.1
20260503222415 66 325 2.0 13.0 0.00 0.01 0.01 48 1010.9
20260503221913 66 192 5.0 8.0 0.00 0.01 0.01 48 1011.4
20260503221411 65 200 3.0 4.0 0.00 0.01 0.01 51 1011.2
20260503220907 64 196 3.0 5.0 0.00 0.01 0.01 54 1011.5
20260503220404 64 255 2.0 5.0 0.00 0.01 0.01 57 1011.4
20260503215901 61 225 2.0 4.0 0.00 0.01 0.01 62 1011.4
20260503215358 60 290 2.0 4.0 0.00 0.01 0.01 64 1011.2
20260503214855 59 278 3.0 4.0 0.00 0.01 0.01 63 1011.6
20260503214353 58 349 2.0 7.0 0.00 0.01 0.01 64 1011.8
20260503213850 58 14 6.0 9.0 0.00 0.01 0.01 66 1011.8
20260503213348 59 359 3.0 15.0 0.00 0.01 0.01 64 1012.0
20260503212844 60 311 0.0 2.0 0.00 0.01 0.01 56 1011.7
20260503212342 59 66 0.0 2.0 0.00 0.01 0.01 58 1012.1
20260503211839 59 269 0.0 2.0 0.05 0.01 0.01 57 1012.0
20260503211336 59 310 2.0 4.0 0.05 0.01 0.01 55 1011.9
20260503210831 60 355 2.0 9.0 0.00 0.00 0.00 56 1012.2
20260503210329 62 4 5.0 5.0 0.00 0.00 0.00 49 1012.2
20260503205823 63 331 3.0 4.0 0.00 0.00 0.00 46 1012.3
20260503205320 63 171 0.0 3.0 0.00 0.00 0.00 45 1012.2
20260503204817 63 142 0.0 0.0 0.00 0.00 0.00 46 1011.7
20260503204315 63 114 0.0 4.0 0.00 0.00 0.00 45 1011.8
20260503203812 64 156 4.0 4.0 0.00 0.00 0.00 44 1011.8
20260503203309 64 100 2.0 4.0 0.00 0.00 0.00 43 1011.7
20260503202806 64 152 2.0 4.0 0.00 0.00 0.00 46 1011.8
20260503202304 64 164 3.0 3.0 0.00 0.00 0.00 47 1011.7
20260503201801 63 111 3.0 7.0 0.00 0.00 0.00 46 1012.0
20260503201258 64 106 4.0 4.0 0.00 0.00 0.00 46 1012.3
20260503200756 64 37 0.0 3.0 0.00 0.00 0.00 46 1012.3
20260503200251 64 147 0.0 2.0 0.00 0.00 0.00 47 1012.6
20260503195749 64 43 3.0 3.0 0.00 0.00 0.00 44 1012.5
20260503195246 64 359 2.0 4.0 0.00 0.00 0.00 43 1012.7
20260503194743 63 275 4.0 4.0 0.00 0.00 0.00 43 1012.7
20260503194238 64 352 4.0 5.0 0.00 0.00 0.00 44 1012.8
20260503193735 65 357 3.0 8.0 0.00 0.00 0.00 42 1012.8
20260503193231 66 290 2.0 4.0 0.00 0.00 0.00 40 1012.6
20260503192727 66 180 0.0 4.0 0.00 0.00 0.00 38 1012.6
20260503192222 66 147 3.0 5.0 0.00 0.00 0.00 38 1012.8
20260503191719 66 171 4.0 5.0 0.00 0.00 0.00 38 1012.8
20260503191216 66 69 2.0 3.0 0.00 0.00 0.00 37 1013.0
20260503190713 67 329 0.0 4.0 0.00 0.00 0.00 37 1013.0
20260503190210 68 108 7.0 11.0 0.00 0.00 0.00 36 1012.9
20260503185707 69 62 7.0 8.0 0.00 0.00 0.00 36 1013.0
20260503185202 68 223 0.0 3.0 0.00 0.00 0.00 40 1013.0
20260503184657 67 334 5.0 5.0 0.00 0.00 0.00 39 1013.2
20260503184154 66 96 10.0 11.0 0.00 0.00 0.00 39 1013.1
20260503183650 66 41 5.0 9.0 0.00 0.00 0.00 41 1013.1
20260503183148 66 1 8.0 9.0 0.00 0.00 0.00 42 1013.2
20260503182646 65 338 6.0 6.0 0.00 0.00 0.00 38 1013.7
20260503182144 67 11 12.0 16.0 0.00 0.00 0.00 36 1013.3
20260503181640 66 320 4.0 12.0 0.00 0.00 0.00 37 1013.7
20260503181137 67 104 5.0 6.0 0.00 0.00 0.00 35 1013.7
20260503180634 69 349 5.0 11.0 0.00 0.00 0.00 35 1013.4
20260503180132 68 146 3.0 9.0 0.00 0.00 0.00 34 1013.7
20260503175629 67 331 5.0 10.0 0.00 0.00 0.00 35 1013.8
20260503175126 68 5 5.0 9.0 0.00 0.00 0.00 35 1013.8
20260503174622 67 73 8.0 11.0 0.00 0.00 0.00 36 1013.8
20260503174120 67 349 3.0 12.0 0.00 0.00 0.00 38 1013.7
20260503173614 66 74 2.0 14.0 0.00 0.00 0.00 37 1013.9
20260503173111 65 40 6.0 10.0 0.00 0.00 0.00 37 1014.1
20260503172608 66 36 4.0 8.0 0.00 0.00 0.00 37 1014.3
20260503172106 66 26 5.0 10.0 0.00 0.00 0.00 38 1014.1
20260503171602 67 100 8.0 9.0 0.00 0.00 0.00 37 1014.5
20260503171100 67 66 5.0 9.0 0.00 0.00 0.00 38 1014.7
20260503170555 67 45 3.0 9.0 0.00 0.00 0.00 37 1014.4
20260503150948 60 110 5.0 5.0 0.00 0.00 0.00 43 1015.3
20260503150445 60 155 0.0 4.0 0.00 0.00 0.00 43 1015.0
20260503131338 54 261 2.0 5.0 0.00 0.00 0.00 55 1015.4
20260503130836 53 0 3.0 4.0 0.00 0.00 0.00 55 1015.6
20260503130333 53 309 0.0 4.0 0.00 0.00 0.00 55 1015.4